Location: Tamazert
(32.6352°N, 5.2072°W)
Time: 14:19:35
(UTC+00:00)

Vanguard 2 - All Passes

Search period start: 03 October 2022 00:00
Search period end: 13 October 2022 00:00
Orbit: 552 x 2935 km, 32.9° (Epoch: 02 October)

Date Brightness Start Highest point End Pass type
(mag) Time Alt. Az. Time Alt. Az. Time Alt. Az.
03 Oct - 10:46:07 10° SSW 10:53:10 30° SE 11:03:39 10° E daylight
03 Oct - 12:52:10 10° WSW 13:02:19 73° SSE 13:18:29 10° ENE daylight
03 Oct - 15:01:04 10° W 15:14:25 89° N 15:32:37 10° E daylight
03 Oct - 17:11:33 10° W 17:27:46 79° SSW 17:45:19 10° ESE daylight
03 Oct - 19:23:46 10° W 19:40:05 46° SW 19:54:35 10° SSE visible
03 Oct - 21:41:49 10° W 21:50:02 15° SW 21:57:20 10° SSW visible
04 Oct - 11:02:26 10° SSW 11:09:54 40° SE 11:21:44 10° E daylight
04 Oct - 13:09:18 10° WSW 13:19:40 81° SSE 13:36:10 10° E daylight
04 Oct - 15:18:28 10° W 15:32:03 90° N 15:50:16 10° E daylight
04 Oct - 17:29:01 10° WNW 17:45:14 71° SSW 18:02:31 10° ESE daylight
04 Oct - 19:41:44 10° W 19:57:03 38° SW 20:10:47 10° SSE visible
05 Oct - 09:16:43 10° SSE 09:19:23 12° SE 09:22:27 10° ESE daylight
05 Oct - 11:19:01 10° SW 11:26:47 51° SSE 11:39:33 10° ENE daylight
05 Oct - 13:26:31 10° WSW 13:37:07 87° S 13:53:52 10° E daylight
05 Oct - 15:35:52 10° W 15:49:41 88° S 16:07:54 10° ESE daylight
05 Oct - 17:46:32 10° WNW 18:02:36 62° SSW 18:19:30 10° SE daylight
05 Oct - 20:00:06 10° W 20:13:58 29° SW 20:26:34 10° S visible
06 Oct - 09:31:15 10° S 09:35:56 19° SE 09:42:11 10° E daylight
06 Oct - 11:35:52 10° SW 11:43:50 63° SSE 11:57:16 10° ENE daylight
06 Oct - 13:43:49 10° W 13:54:38 90° N 14:11:36 10° E daylight
06 Oct - 15:53:15 10° W 16:07:15 82° SSW 16:25:24 10° ESE daylight
06 Oct - 18:04:07 10° W 18:19:51 53° SSW 18:36:15 10° SE visible
06 Oct - 20:19:07 10° W 20:30:51 22° SW 20:41:43 10° S visible
07 Oct - 09:47:04 10° SSW 09:52:33 27° SE 10:00:39 10° E daylight
07 Oct - 11:52:53 10° WSW 12:01:02 73° SSE 12:14:57 10° E daylight
07 Oct - 14:01:09 10° W 14:12:12 89° N 14:29:19 10° E daylight
07 Oct - 16:10:39 10° W 16:24:45 76° SSW 16:42:48 10° ESE daylight
07 Oct - 18:21:52 10° W 18:37:01 44° SW 18:52:43 10° SSE visible
07 Oct - 20:39:28 10° WSW 20:47:44 15° SW 20:55:36 10° SSW visible
08 Oct - 10:03:24 10° SSW 10:09:19 37° SE 10:18:40 10° E daylight
08 Oct - 12:10:01 10° WSW 12:18:21 82° SSE 12:32:38 10° E daylight
08 Oct - 14:18:29 10° W 14:29:46 90° S 14:47:02 10° E daylight
08 Oct - 16:28:03 10° WNW 16:42:11 67° SSW 16:59:58 10° SE daylight
08 Oct - 18:39:52 10° W 18:54:07 35° SW 19:08:48 10° SSE visible
09 Oct - 10:20:04 10° SW 10:26:14 49° SSE 10:36:27 10° E daylight
09 Oct - 12:27:14 10° W 12:35:45 88° S 12:50:19 10° E daylight
09 Oct - 14:35:49 10° W 14:47:18 86° SSW 15:04:40 10° ESE daylight
09 Oct - 16:45:31 10° W 16:59:33 58° SSW 17:16:54 10° SE daylight
09 Oct - 18:58:18 10° W 19:11:11 27° SW 19:24:23 10° S visible
10 Oct - 08:32:28 10° S 08:35:47 16° SE 08:39:56 10° E daylight
10 Oct - 10:36:56 10° SW 10:43:17 62° SSE 10:54:07 10° E daylight
10 Oct - 12:44:29 10° W 12:53:14 89° N 13:08:03 10° E daylight
10 Oct - 14:53:08 10° W 15:04:48 79° SSW 15:22:11 10° ESE daylight
10 Oct - 17:03:05 10° W 17:16:51 49° SSW 17:33:34 10° SE daylight
10 Oct - 19:17:29 10° W 19:28:14 20° SW 19:39:13 10° S visible
11 Oct - 08:48:14 10° SSW 08:52:29 24° SE 08:58:25 10° E daylight
11 Oct - 10:53:58 10° WSW 11:00:28 74° SSE 11:11:44 10° E daylight
11 Oct - 13:01:46 10° W 13:10:42 89° N 13:25:46 10° E daylight
11 Oct - 15:10:28 10° W 15:22:15 71° SSW 15:39:32 10° ESE daylight
11 Oct - 17:20:51 10° W 17:34:06 40° SSW 17:49:54 10° SSE daylight
11 Oct - 19:38:22 10° WSW 19:45:21 14° SW 19:52:26 10° SSW visible
12 Oct - 09:04:35 10° SSW 09:09:18 34° SE 09:16:22 10° E daylight
12 Oct - 11:11:06 10° WSW 11:17:46 84° SSE 11:29:22 10° E daylight
12 Oct - 13:19:02 10° W 13:28:11 88° S 13:43:28 10° E daylight
12 Oct - 15:27:49 10° W 15:39:39 62° SSW 15:56:40 10° SE daylight
12 Oct - 17:38:55 10° W 17:51:21 32° SW 18:05:49 10° SSE daylight
